| time (UTC) | temp F | wind direction | speed MPH | gust MPH | rain 1hr in | rain 24hr in | rain mn in | humidity % | barometer mb |
| 20260504031004 | 49 | 159 | 1.0 | 6.0 | 0.02 | 0.02 | 0.02 | 86 | 1006.9 |
| 20260504030003 | 49 | 218 | 1.0 | 7.0 | 0.00 | 0.00 | 0.00 | 84 | 1007.1 |
| 20260504025003 | 48 | 188 | 0.0 | 4.0 | 0.00 | 0.00 | 0.00 | 85 | 1007.3 |
| 20260504024003 | 47 | 179 | 0.0 | 6.0 | 0.00 | 0.00 | 0.00 | 85 | 1007.6 |
| 20260504023003 | 47 | 160 | 0.0 | 3.0 | 0.00 | 0.00 | 0.00 | 85 | 1007.8 |
| 20260504022003 | 47 | 173 | 0.0 | 3.0 | 0.00 | 0.00 | 0.00 | 85 | 1007.8 |
| 20260504021003 | 47 | 119 | 0.0 | 1.0 | 0.00 | 0.00 | 0.00 | 85 | 1007.8 |
| 20260504020003 | 48 | 159 | 0.0 | 2.0 | 0.00 | 0.00 | 0.00 | 84 | 1007.7 |
| 20260504015003 | 48 | 155 | 0.0 | 5.0 | 0.00 | 0.00 | 0.00 | 84 | 1007.6 |
| 20260504014003 | 48 | 166 | 1.0 | 4.0 | 0.00 | 0.00 | 0.00 | 83 | 1007.6 |
| 20260504013024 | 48 | 152 | 0.0 | 2.0 | 0.00 | 0.00 | 0.00 | 83 | 1007.6 |
| 20260504012024 | 48 | 258 | 0.0 | 2.0 | 0.00 | 0.00 | 0.00 | 83 | 1007.5 |
| 20260504011003 | 48 | 260 | 0.0 | 3.0 | 0.00 | 0.00 | 0.00 | 83 | 1007.5 |
| 20260504010008 | 48 | 277 | 1.0 | 5.0 | 0.00 | 0.00 | 0.00 | 83 | 1007.5 |
| 20260504005008 | 48 | 270 | 1.0 | 4.0 | 0.00 | 0.00 | 0.00 | 83 | 1007.5 |
| 20260504004008 | 48 | 247 | 1.0 | 3.0 | 0.00 | 0.00 | 0.00 | 82 | 1007.6 |
| 20260504003008 | 48 | 224 | 1.0 | 4.0 | 0.00 | 0.00 | 0.00 | 81 | 1007.6 |
| 20260504002008 | 48 | 266 | 3.0 | 11.0 | 0.00 | 0.00 | 0.00 | 79 | 1007.6 |
| 20260504001029 | 49 | 259 | 2.0 | 9.0 | 0.00 | 0.00 | 0.00 | 78 | 1007.5 |
| 20260504000008 | 49 | 237 | 2.0 | 6.0 | 0.00 | 0.00 | 0.00 | 75 | 1007.5 |
| 20260503235008 | 50 | 212 | 2.0 | 6.0 | 0.00 | 0.00 | 0.00 | 73 | 1007.6 |
| 20260503234008 | 50 | 213 | 2.0 | 7.0 | 0.00 | 0.00 | 0.00 | 72 | 1007.5 |
| 20260503233008 | 51 | 203 | 3.0 | 10.0 | 0.00 | 0.00 | 0.00 | 66 | 1007.5 |
| 20260503232008 | 52 | 251 | 3.0 | 14.0 | 0.00 | 0.00 | 0.00 | 64 | 1007.4 |
| 20260503231008 | 52 | 245 | 4.0 | 12.0 | 0.00 | 0.00 | 0.00 | 62 | 1007.3 |
| 20260503230008 | 53 | 175 | 0.0 | 4.0 | 0.00 | 0.00 | 0.00 | 57 | 1007.2 |
| 20260503225029 | 52 | 162 | 0.0 | 2.0 | 0.00 | 0.00 | 0.00 | 50 | 1007.2 |
| 20260503224008 | 53 | 154 | 1.0 | 3.0 | 0.00 | 0.00 | 0.00 | 49 | 1007.3 |
| 20260503223008 | 53 | 168 | 1.0 | 5.0 | 0.00 | 0.00 | 0.00 | 47 | 1007.4 |
| 20260503222008 | 53 | 174 | 1.0 | 2.0 | 0.00 | 0.00 | 0.00 | 47 | 1007.6 |
| 20260503221008 | 53 | 164 | 3.0 | 7.0 | 0.00 | 0.00 | 0.00 | 46 | 1007.6 |
| 20260503220009 | 54 | 162 | 2.0 | 7.0 | 0.00 | 0.00 | 0.00 | 46 | 1007.7 |
| 20260503215008 | 54 | 166 | 2.0 | 8.0 | 0.00 | 0.00 | 0.00 | 45 | 1007.8 |
| 20260503214008 | 54 | 171 | 1.0 | 4.0 | 0.00 | 0.00 | 0.00 | 46 | 1007.8 |
| 20260503213008 | 54 | 260 | 3.0 | 13.0 | 0.00 | 0.00 | 0.00 | 46 | 1007.7 |
| 20260503212008 | 54 | 241 | 4.0 | 12.0 | 0.00 | 0.00 | 0.00 | 45 | 1007.7 |
| 20260503211008 | 55 | 239 | 2.0 | 14.0 | 0.00 | 0.00 | 0.00 | 43 | 1007.6 |
| 20260503210008 | 56 | 202 | 3.0 | 9.0 | 0.00 | 0.00 | 0.00 | 41 | 1007.5 |
| 20260503205008 | 57 | 194 | 4.0 | 10.0 | 0.00 | 0.00 | 0.00 | 38 | 1007.7 |
| 20260503204008 | 58 | 188 | 3.0 | 9.0 | 0.00 | 0.00 | 0.00 | 37 | 1007.7 |
| 20260503202003 | 58 | 227 | 4.0 | 14.0 | 0.00 | 0.00 | 0.00 | 39 | 1008.0 |
| 20260503201003 | 58 | 247 | 4.0 | 9.0 | 0.00 | 0.00 | 0.00 | 42 | 1008.2 |
| 20260503200003 | 56 | 245 | 4.0 | 11.0 | 0.00 | 0.00 | 0.00 | 40 | 1008.4 |
| 20260503195003 | 57 | 266 | 5.0 | 21.0 | 0.00 | 0.00 | 0.00 | 41 | 1008.4 |
| 20260503194003 | 56 | 261 | 4.0 | 12.0 | 0.00 | 0.00 | 0.00 | 42 | 1008.6 |
| 20260503193003 | 57 | 268 | 4.0 | 11.0 | 0.00 | 0.00 | 0.00 | 43 | 1008.7 |
| 20260503192003 | 56 | 241 | 4.0 | 11.0 | 0.00 | 0.00 | 0.00 | 43 | 1008.9 |
| 20260503191003 | 58 | 181 | 3.0 | 9.0 | 0.00 | 0.00 | 0.00 | 40 | 1008.9 |
| 20260503190024 | 56 | 234 | 3.0 | 9.0 | 0.00 | 0.00 | 0.00 | 43 | 1009.1 |
| 20260503185003 | 55 | 264 | 4.0 | 11.0 | 0.00 | 0.00 | 0.00 | 43 | 1009.3 |
| 20260503184003 | 55 | 235 | 4.0 | 14.0 | 0.00 | 0.00 | 0.00 | 40 | 1009.4 |
| 20260503183003 | 56 | 189 | 3.0 | 12.0 | 0.00 | 0.00 | 0.00 | 40 | 1009.3 |
| 20260503182003 | 55 | 254 | 4.0 | 13.0 | 0.00 | 0.00 | 0.00 | 41 | 1009.6 |
| 20260503181003 | 56 | 214 | 3.0 | 14.0 | 0.00 | 0.00 | 0.00 | 40 | 1009.6 |
| 20260503180024 | 55 | 221 | 4.0 | 11.0 | 0.00 | 0.00 | 0.00 | 41 | 1009.6 |
| 20260503175024 | 55 | 259 | 3.0 | 11.0 | 0.00 | 0.00 | 0.00 | 40 | 1009.7 |
| 20260503174003 | 54 | 277 | 5.0 | 12.0 | 0.00 | 0.00 | 0.00 | 39 | 1009.8 |
| 20260503173003 | 56 | 264 | 2.0 | 6.0 | 0.00 | 0.00 | 0.00 | 42 | 1009.9 |
| 20260503172003 | 54 | 286 | 3.0 | 10.0 | 0.00 | 0.00 | 0.00 | 38 | 1010.1 |
| 20260503171003 | 54 | 271 | 3.0 | 12.0 | 0.00 | 0.00 | 0.00 | 37 | 1010.1 |
| 20260503151003 | 51 | 269 | 3.0 | 8.0 | 0.00 | 0.00 | 0.00 | 36 | 1011.5 |
| 20260503131003 | 44 | 273 | 1.0 | 5.0 | 0.00 | 0.00 | 0.00 | 46 | 1012.7 |
| 20260503081003 | 34 | 287 | 0.0 | 1.0 | 0.00 | 0.00 | 0.00 | 74 | 1012.9 |
| 20260503072024 | 35 | 275 | 2.0 | 5.0 | 0.00 | 0.00 | 0.00 | 71 | 1013.0 |
| 20260503071003 | 36 | 276 | 2.0 | 5.0 | 0.00 | 0.00 | 0.00 | 70 | 1012.9 |
| 20260503055024 | 37 | 276 | 2.0 | 6.0 | 0.00 | 0.00 | 0.00 | 69 | 1013.3 |
| 20260503054003 | 37 | 274 | 2.0 | 5.0 | 0.00 | 0.00 | 0.00 | 68 | 1013.4 |
| 20260503053003 | 38 | 275 | 1.0 | 4.0 | 0.00 | 0.00 | 0.00 | 68 | 1013.4 |
| 20260503052024 | 38 | 269 | 2.0 | 5.0 | 0.00 | 0.00 | 0.00 | 68 | 1013.5 |
| 20260503051003 | 38 | 276 | 2.0 | 6.0 | 0.00 | 0.00 | 0.00 | 68 | 1013.5 |
| 20260503050004 | 38 | 267 | 1.0 | 7.0 | 0.00 | 0.00 | 0.00 | 67 | 1013.5 |
| 20260503045024 | 38 | 273 | 2.0 | 4.0 | 0.00 | 0.00 | 0.00 | 67 | 1013.5 |
| 20260503044024 | 39 | 270 | 1.0 | 4.0 | 0.00 | 0.00 | 0.00 | 67 | 1013.5 |
| 20260503043003 | 39 | 277 | 1.0 | 4.0 | 0.00 | 0.00 | 0.00 | 66 | 1013.6 |